Weather History for Grand Marais Airport, MN

Change the Weather History Date:

Friday, June 1, 2012

  Actual Average Record
Temperature  
Mean Temperature 46 °F -  
Max Temperature 62 °F 62 °F 75 °F (1997)
Min Temperature 30 °F 40 °F 30 °F (2012)
Degree Days  
Heating Degree Days 19    
Moisture  
Dew Point 28 °F    
Average Humidity 52    
Maximum Humidity 93    
Minimum Humidity 20    
Precipitation  
Precipitation 0.00 in - - ()
Sea Level Pressure  
Sea Level Pressure 29.89 in    
Wind  
Wind Speed 2 mph (South)    
Max Wind Speed 9 mph    
Max Gust Speed -    
Visibility 10 miles    
Events      
Averages and records for this station are not official NWS values.
T = Trace of Precipitation, MM = Missing Value Source: NWS Daily Summary

Daily Weather History Graph

Daily Weather History Graph

Search for Another Location

Airport:

Trip Planner

Search our weather history database for the weather conditions in past years. The results will help you decide how hot, cold, wet, or windy it might be!

Date:

Astronomy

Jun. 01, 2012 Rise Set
Actual Time 5:06 AM CDT 8:52 PM CDT
Civil Twilight 4:26 AM CDT 9:32 PM CDT
Nautical Twilight 3:33 AM CDT 10:26 PM CDT
Astronomical Twilight 2:15 AM CDT 11:45 PM CDT
Moon 5:46 PM CDT 2:54 AM CDT
Length of Visible Light 17h 05m
Length of Day
15h 46m
Waxing Gibbous, 89% of the Moon is Illuminated
Jun 1
Waxing Gibbous
Jun 4
Full
Jun 11
Last Quarter
Jun 19
New
Jun 26
First Quarter

Hourly Weather History & Observations

Time (CDT) Temp. Windchill Dew Point Humidity Pressure Visibility Wind Dir Wind Speed Gust Speed Precip Events Conditions
12:13 AM 33.8 °F - 30.2 °F 87% 29.99 in 10.0 mi Calm Calm - N/A   Clear
12:34 AM 33.8 °F - 30.2 °F 87% 30.00 in 10.0 mi Calm Calm - N/A   Clear
12:54 AM 33.8 °F - 30.2 °F 87% 29.99 in 10.0 mi Calm Calm - N/A   Clear
1:13 AM 33.8 °F - 30.2 °F 87% 29.99 in 10.0 mi Calm Calm - N/A   Clear
1:34 AM 33.8 °F - 28.4 °F 81% 29.98 in 10.0 mi Calm Calm - N/A   Clear
1:53 AM 32.0 °F - 28.4 °F 87% 29.98 in 10.0 mi Calm Calm - N/A   Clear
2:14 AM 30.2 °F - 28.4 °F 93% 29.97 in 10.0 mi Calm Calm - N/A   Clear
2:33 AM 30.2 °F - 26.6 °F 86% 29.97 in 10.0 mi Calm Calm - N/A   Clear
2:54 AM 30.2 °F - 28.4 °F 93% 29.97 in 10.0 mi Calm Calm - N/A   Clear
3:14 AM 32.0 °F 28.7 °F 28.4 °F 87% 29.96 in 10.0 mi WNW 3.5 mph - N/A   Clear
3:33 AM 32.0 °F - 28.4 °F 87% 29.96 in 10.0 mi Calm Calm - N/A   Clear
3:54 AM 32.0 °F 28.7 °F 28.4 °F 87% 29.96 in 10.0 mi NNW 3.5 mph - N/A   Clear
4:13 AM 32.0 °F - 28.4 °F 87% 29.96 in 10.0 mi Calm Calm - N/A   Clear
4:33 AM 30.2 °F - 26.6 °F 86% 29.96 in 10.0 mi Calm Calm - N/A   Clear
4:54 AM 30.2 °F - 28.4 °F 93% 29.96 in 10.0 mi Calm Calm - N/A   Clear
5:13 AM 32.0 °F - 28.4 °F 87% 29.96 in 10.0 mi Calm Calm - N/A   Clear
5:34 AM 33.8 °F - 30.2 °F 87% 29.96 in 10.0 mi Calm Calm - N/A   Clear
5:53 AM 33.8 °F - 28.4 °F 81% 29.96 in 10.0 mi Calm Calm - N/A   Clear
6:14 AM 35.6 °F - 30.2 °F 81% 29.96 in 10.0 mi Calm Calm - N/A   Clear
6:33 AM 39.2 °F - 32.0 °F 75% 29.96 in 10.0 mi Calm Calm - N/A   Clear
6:54 AM 42.8 °F - 33.8 °F 70% 29.96 in 10.0 mi Calm Calm - N/A   Clear
7:13 AM 46.4 °F - 37.4 °F 71% 29.96 in 10.0 mi Calm Calm - N/A   Clear
7:34 AM 50.0 °F - 30.2 °F 47% 29.96 in 10.0 mi Calm Calm - N/A   Clear
7:53 AM 51.8 °F - 30.2 °F 44% 29.96 in 10.0 mi South 3.5 mph - N/A   Clear
8:14 AM 51.8 °F - 30.2 °F 44% 29.96 in 10.0 mi Calm Calm - N/A   Clear
8:33 AM 53.6 °F - 33.8 °F 47% 29.96 in 10.0 mi South 3.5 mph - N/A   Clear
8:53 AM 53.6 °F - 32.0 °F 44% 29.95 in 10.0 mi Calm Calm - N/A   Clear
9:14 AM 55.4 °F - 32.0 °F 41% 29.95 in 10.0 mi Calm Calm - N/A   Clear
9:33 AM 57.2 °F - 33.8 °F 41% 29.94 in 10.0 mi Calm Calm - N/A   Clear
9:53 AM 59.0 °F - 32.0 °F 36% 29.94 in 10.0 mi Calm Calm - N/A   Clear
10:14 AM 60.8 °F - 33.8 °F 36% 29.93 in 10.0 mi SSE 3.5 mph - N/A   Clear
10:34 AM 62.6 °F - 32.0 °F 32% 29.93 in 10.0 mi Calm Calm - N/A   Clear
10:53 AM 60.8 °F - 33.8 °F 36% 29.92 in 10.0 mi SSE 5.8 mph - N/A   Clear
11:14 AM 62.6 °F - 33.8 °F 34% 29.92 in 10.0 mi SSE 8.1 mph - N/A   Clear
11:33 AM 60.8 °F - 33.8 °F 36% 29.91 in 10.0 mi SSE 5.8 mph - N/A   Clear
11:54 AM 60.8 °F - 32.0 °F 34% 29.91 in 10.0 mi SSE 6.9 mph - N/A   Clear
12:14 PM 62.6 °F - 32.0 °F 32% 29.90 in 10.0 mi SE 6.9 mph - N/A   Clear
12:33 PM 62.6 °F - 30.2 °F 30% 29.89 in 10.0 mi SSE 5.8 mph - N/A   Clear
12:54 PM 62.6 °F - 30.2 °F 30% 29.89 in 10.0 mi SSE 8.1 mph - N/A   Clear
1:14 PM 60.8 °F - 28.4 °F 29% 29.88 in 10.0 mi SSE 8.1 mph - N/A   Clear
1:33 PM 60.8 °F - 28.4 °F 29% 29.88 in 10.0 mi South 6.9 mph - N/A   Clear
1:54 PM 62.6 °F - 28.4 °F 27% 29.88 in 10.0 mi SE 9.2 mph - N/A   Clear
2:14 PM 60.8 °F - 26.6 °F 27% 29.88 in 10.0 mi South 8.1 mph - N/A   Clear
2:33 PM 60.8 °F - 28.4 °F 29% 29.87 in 10.0 mi SSE 5.8 mph - N/A   Clear
3:13 PM 60.8 °F - 26.6 °F 27% 29.86 in 10.0 mi SSE 4.6 mph - N/A   Clear
3:34 PM 59.0 °F - 23.0 °F 25% 29.86 in 10.0 mi SSE 5.8 mph - N/A   Clear
3:53 PM 60.8 °F - 24.8 °F 25% 29.85 in 10.0 mi South 5.8 mph - N/A   Clear
4:14 PM 60.8 °F - 23.0 °F 23% 29.85 in 10.0 mi SSE 5.8 mph - N/A   Clear
4:34 PM 60.8 °F - 21.2 °F 22% 29.84 in 10.0 mi South 5.8 mph - N/A   Clear
5:13 PM 60.8 °F - 21.2 °F 22% 29.83 in 10.0 mi South 4.6 mph - N/A   Clear
5:33 PM 60.8 °F - 19.4 °F 20% 29.83 in 10.0 mi South 3.5 mph - N/A   Clear
6:13 PM 59.0 °F - 17.6 °F 20% 29.82 in 10.0 mi SE 4.6 mph - N/A   Clear
6:33 PM 59.0 °F - 17.6 °F 20% 29.81 in 10.0 mi SSE 3.5 mph - N/A   Clear
6:54 PM 57.2 °F - 19.4 °F 23% 29.81 in 10.0 mi Calm Calm - N/A   Clear
7:13 PM 57.2 °F - 17.6 °F 21% 29.81 in 10.0 mi SSE 4.6 mph - N/A   Clear
7:33 PM 55.4 °F - 19.4 °F 25% 29.81 in 10.0 mi SSE 3.5 mph - N/A   Clear
7:54 PM 53.6 °F - 21.2 °F 28% 29.80 in 10.0 mi Calm Calm - N/A   Clear
8:14 PM 51.8 °F - 21.2 °F 30% 29.80 in 10.0 mi Calm Calm - N/A   Clear
8:33 PM 48.2 °F - 24.8 °F 40% 29.80 in 10.0 mi Calm Calm - N/A   Clear
8:54 PM 46.4 °F 45.2 °F 23.0 °F 40% 29.80 in 10.0 mi WSW 3.5 mph - N/A   Clear
9:14 PM 44.6 °F - 28.4 °F 53% 29.80 in 10.0 mi Calm Calm - N/A   Clear
9:33 PM 42.8 °F 41.1 °F 30.2 °F 61% 29.79 in 10.0 mi West 3.5 mph - N/A   Clear
9:54 PM 42.8 °F 39.3 °F 26.6 °F 53% 29.79 in 10.0 mi West 5.8 mph - N/A   Clear
10:14 PM 42.8 °F 40.1 °F 26.6 °F 53% 29.78 in 10.0 mi West 4.6 mph - N/A   Clear
10:33 PM 42.8 °F - 28.4 °F 57% 29.78 in 10.0 mi Calm Calm - N/A   Clear
10:54 PM 39.2 °F 35.0 °F 30.2 °F 70% 29.78 in 10.0 mi WNW 5.8 mph - N/A   Clear
11:14 PM 41.0 °F 39.0 °F 30.2 °F 65% 29.77 in 10.0 mi WNW 3.5 mph - N/A   Mostly Cloudy
11:33 PM 41.0 °F 38.0 °F 30.2 °F 65% 29.77 in 10.0 mi WNW 4.6 mph - N/A   Mostly Cloudy
11:53 PM 44.6 °F - 28.4 °F 53% 29.76 in 10.0 mi Calm Calm - N/A   Mostly Cloudy